GW4236 Weather Reports


time (UTC)temp
C
wind
direction
speed
KPH
gust
KPH
rain 1hr
cm
rain 24hr
cm
rain mn
cm
humidity
%
barometer
mb
20260506002445 27 196 4.8 9.7 0.00 0.00 0.00 74 1005.9
20260506001940 27 199 6.4 11.3 0.00 0.00 0.00 74 1006.1
20260506001437 27 105 8.0 16.1 0.00 0.00 0.00 74 1006.1
20260506000934 27 257 4.8 12.9 0.00 0.00 0.00 74 1006.0
20260506000432 27 183 6.4 11.3 0.00 0.00 0.00 74 1005.8
20260505235929 27 142 8.0 14.5 0.00 0.00 0.00 74 1005.8
20260505235427 27 220 4.8 9.7 0.00 0.00 0.00 73 1006.0
20260505234924 28 200 6.4 14.5 0.00 0.00 0.00 73 1006.1
20260505234421 28 252 8.0 16.1 0.00 0.00 0.00 73 1006.1
20260505233917 28 210 8.0 17.7 0.00 0.00 0.00 72 1005.9
20260505233415 28 165 8.0 11.3 0.00 0.00 0.00 72 1005.9
20260505232912 28 217 11.3 16.1 0.00 0.00 0.00 71 1005.8
20260505232410 28 232 9.7 12.9 0.00 0.00 0.00 71 1006.0
20260505231907 28 135 6.4 16.1 0.00 0.00 0.00 71 1006.0
20260505231405 28 224 6.4 14.5 0.00 0.00 0.00 71 1006.0
20260505230903 29 180 9.7 17.7 0.00 0.00 0.00 70 1005.6
20260505230400 30 233 11.3 14.5 0.00 0.00 0.00 68 1005.6
20260505225856 30 225 4.8 11.3 0.00 0.00 0.00 68 1005.7
20260505225354 30 212 6.4 14.5 0.00 0.00 0.00 68 1005.8
20260505224848 30 219 8.0 14.5 0.00 0.00 0.00 67 1005.7
20260505224346 30 204 11.3 17.7 0.00 0.00 0.00 66 1005.6
20260505223843 30 168 6.4 12.9 0.00 0.00 0.00 66 1005.6
20260505223340 30 164 9.7 14.5 0.00 0.00 0.00 67 1005.5
20260505222836 30 211 9.7 16.1 0.00 0.00 0.00 67 1005.5
20260505222332 30 172 4.8 9.7 0.00 0.00 0.00 66 1005.4
20260505221830 31 220 9.7 12.9 0.00 0.00 0.00 64 1005.4
20260505221326 30 225 6.4 11.3 0.00 0.00 0.00 66 1005.5
20260505220823 30 142 6.4 12.9 0.00 0.00 0.00 65 1005.6
20260505220320 31 197 4.8 16.1 0.00 0.00 0.00 65 1005.5
20260505215818 30 235 8.0 12.9 0.00 0.00 0.00 66 1005.4
20260505215316 31 204 6.4 14.5 0.00 0.00 0.00 64 1005.6
20260505214814 30 224 3.2 16.1 0.00 0.00 0.00 66 1005.8
20260505214311 30 161 6.4 14.5 0.00 0.00 0.00 66 1005.6
20260505213808 30 198 6.4 17.7 0.00 0.00 0.00 65 1005.9
20260505213306 30 206 6.4 12.9 0.00 0.00 0.00 66 1005.7
20260505212801 30 212 6.4 12.9 0.00 0.00 0.00 66 1005.8
20260505212259 30 158 3.2 12.9 0.00 0.00 0.00 66 1005.8
20260505211755 31 190 6.4 12.9 0.00 0.00 0.00 65 1006.0
20260505211253 30 192 6.4 9.7 0.00 0.00 0.00 66 1005.8
20260505210749 30 173 4.8 14.5 0.00 0.00 0.00 66 1005.9
20260505210246 30 156 6.4 14.5 0.00 0.00 0.00 65 1006.0
20260505205743 30 223 14.5 20.9 0.00 0.00 0.00 65 1006.1
20260505205242 31 180 4.8 11.3 0.00 0.00 0.00 64 1005.9
20260505204738 30 169 8.0 14.5 0.00 0.00 0.00 64 1006.2
20260505204236 31 210 6.4 16.1 0.00 0.00 0.00 64 1006.2
20260505203733 31 221 9.7 14.5 0.00 0.00 0.00 63 1006.2
20260505203230 30 350 14.5 20.9 0.00 0.00 0.00 64 1006.3
20260505202725 30 222 3.2 11.3 0.00 0.00 0.00 66 1006.3
20260505202221 31 193 11.3 16.1 0.00 0.00 0.00 65 1006.4
20260505201718 31 291 6.4 12.9 0.00 0.00 0.00 64 1006.4
20260505201216 30 197 9.7 16.1 0.00 0.00 0.00 64 1006.3
20260505200714 30 161 6.4 22.5 0.00 0.00 0.00 64 1006.3
20260505200210 30 201 4.8 11.3 0.00 0.00 0.00 65 1006.4
20260505195706 30 198 6.4 22.5 0.00 0.00 0.00 65 1006.3
20260505195204 30 165 12.9 14.5 0.00 0.00 0.00 64 1006.5
20260505194701 30 158 6.4 16.1 0.00 0.00 0.00 65 1006.6
20260505194157 30 210 9.7 20.9 0.00 0.00 0.00 65 1006.4
20260505193654 30 152 9.7 14.5 0.00 0.00 0.00 64 1006.3
20260505193151 29 209 12.9 22.5 0.00 0.00 0.00 65 1006.4
20260505192650 29 205 8.0 27.4 0.00 0.00 0.00 66 1006.5
20260505192147 29 24 9.7 17.7 0.00 0.00 0.00 66 1006.8
20260505191645 29 171 11.3 22.5 0.00 0.00 0.00 66 1006.5
20260505191143 29 182 9.7 25.7 0.00 0.00 0.00 66 1006.8
20260505190639 28 229 14.5 24.1 0.00 0.00 0.00 68 1006.8
20260505190138 28 191 11.3 20.9 0.00 0.00 0.00 67 1006.9
20260505185635 28 198 12.9 17.7 0.00 0.00 0.00 68 1006.9
20260505185131 28 165 8.0 16.1 0.00 0.00 0.00 68 1006.9
20260505184628 28 154 4.8 20.9 0.00 0.00 0.00 69 1006.9
20260505184125 28 220 14.5 24.1 0.00 0.00 0.00 68 1007.1
20260505183622 28 307 4.8 12.9 0.00 0.00 0.00 68 1007.0
20260505183119 28 205 11.3 16.1 0.00 0.00 0.00 69 1007.0
20260505182615 28 330 12.9 20.9 0.00 0.00 0.00 68 1007.0
20260505182112 28 250 9.7 16.1 0.00 0.00 0.00 69 1007.1
20260505181609 27 169 14.5 22.5 0.00 0.00 0.00 70 1006.9
20260505181106 27 206 6.4 16.1 0.00 0.00 0.00 70 1007.2
20260505180602 27 213 8.0 24.1 0.00 0.00 0.00 69 1007.1
20260505180100 27 198 11.3 20.9 0.00 0.00 0.00 70 1007.2
20260505175555 27 205 6.4 16.1 0.00 0.00 0.00 71 1007.1
20260505175052 27 205 8.0 24.1 0.00 0.00 0.00 71 1007.0
20260505174549 27 190 12.9 16.1 0.00 0.00 0.00 71 1007.0
20260505174045 27 208 9.7 17.7 0.00 0.00 0.00 71 1007.2
20260505173542 27 223 9.7 14.5 0.00 0.00 0.00 70 1007.1
20260505173039 27 199 11.3 17.7 0.00 0.00 0.00 71 1007.2
20260505172537 27 217 6.4 17.7 0.00 0.00 0.00 71 1007.1
20260505172033 27 192 19.3 25.7 0.00 0.00 0.00 69 1007.2
20260505171528 27 215 8.0 24.1 0.00 0.00 0.00 71 1007.4
20260505171025 27 104 4.8 16.1 0.00 0.00 0.00 70 1007.1
20260505170522 27 231 16.1 24.1 0.00 0.00 0.00 71 1007.1
20260505170018 27 211 19.3 25.7 0.00 0.00 0.00 70 1007.3
20260505165514 27 266 6.4 20.9 0.00 0.00 0.00 71 1007.2
20260505165009 26 180 8.0 29.0 0.00 0.00 0.00 71 1006.8
20260505164506 26 178 8.0 20.9 0.00 0.00 0.00 73 1007.0
20260505164004 26 190 12.9 20.9 0.00 0.00 0.00 72 1007.2
20260505163502 26 230 14.5 22.5 0.00 0.00 0.00 74 1007.1
20260505163002 26 199 12.9 22.5 0.00 0.00 0.00 72 1006.9
20260505162456 26 234 8.0 20.9 0.00 0.00 0.00 73 1007.1
20260505161953 26 196 9.7 24.1 0.00 0.00 0.00 74 1007.1
20260505161450 25 157 12.9 29.0 0.00 0.00 0.00 75 1007.3
20260505160947 26 315 12.9 25.7 0.00 0.00 0.00 74 1007.1
20260505160446 26 266 11.3 17.7 0.00 0.00 0.00 74 1007.0
20260505152922 24 211 16.1 24.1 0.00 0.00 0.00 78 1007.3
20260505152419 25 231 14.5 24.1 0.00 0.00 0.00 78 1007.1
20260505151913 24 148 14.5 25.7 0.00 0.00 0.00 78 1007.1
20260505151410 24 201 4.8 24.1 0.00 0.00 0.00 80 1007.1
20260505150907 23 223 9.7 20.9 0.00 0.00 0.00 80 1007.3
20260505150404 23 214 12.9 22.5 0.00 0.00 0.00 81 1007.4
20260505140334 22 146 3.2 11.3 0.00 0.00 0.00 84 1007.4
20260505130257 22 200 6.4 16.1 0.00 0.00 0.00 86 1006.8
20260505124748 21 198 1.6 11.3 0.00 0.00 0.00 87 1006.7
20260505124245 21 141 6.4 11.3 0.00 0.00 0.00 87 1006.6
20260505123740 21 213 6.4 14.5 0.00 0.00 0.00 87 1006.4
20260505123237 21 143 6.4 12.9 0.00 0.00 0.00 87 1006.2
20260505122734 21 233 6.4 12.9 0.00 0.00 0.00 87 1006.2
20260505122231 21 299 9.7 12.9 0.00 0.00 0.00 87 1006.3
20260505121727 21 121 6.4 12.9 0.00 0.00 0.00 87 1006.5
20260505121224 21 174 4.8 16.1 0.00 0.00 0.00 87 1006.4
20260505120721 21 222 9.7 22.5 0.00 0.00 0.00 87 1006.3
20260505120217 21 194 4.8 12.9 0.00 0.00 0.00 87 1006.2
20260505115715 21 246 6.4 12.9 0.00 0.00 0.00 87 1006.1
20260505115213 21 216 4.8 12.9 0.00 0.00 0.00 87 1006.3
20260505114710 21 217 6.4 12.9 0.00 0.00 0.00 87 1006.5
20260505114206 21 229 8.0 17.7 0.00 0.00 0.00 87 1006.4
20260505113703 21 205 3.2 12.9 0.00 0.00 0.00 87 1006.2
20260505113159 21 221 4.8 17.7 0.00 0.00 0.00 87 1006.3
20260505112656 21 212 3.2 12.9 0.00 0.00 0.00 87 1006.1
20260505112154 21 219 9.7 12.9 0.00 0.00 0.00 87 1006.3
20260505111653 21 207 8.0 12.9 0.00 0.00 0.00 87 1006.4
20260505111149 21 221 6.4 20.9 0.00 0.00 0.00 87 1006.1
20260505110645 21 205 9.7 22.5 0.00 0.00 0.00 87 1005.9
20260505110143 21 194 4.8 12.9 0.00 0.00 0.00 87 1005.8
20260505102119 21 309 6.4 11.3 0.00 0.00 0.00 86 1006.1
20260505101617 21 121 9.7 16.1 0.00 0.00 0.00 86 1006.2
20260505101113 21 178 8.0 16.1 0.00 0.00 0.00 86 1006.3
20260505100609 21 186 8.0 17.7 0.00 0.00 0.00 85 1006.4
20260505100107 21 126 6.4 12.9 0.00 0.00 0.00 85 1006.4
20260505095603 21 188 6.4 17.7 0.00 0.00 0.00 85 1006.5
20260505095059 21 125 11.3 17.7 0.00 0.00 0.00 85 1006.6
20260505094556 21 93 4.8 17.7 0.00 0.00 0.00 85 1006.6
20260505094052 21 236 11.3 22.5 0.00 0.00 0.00 85 1006.6
20260505093548 21 220 14.5 25.7 0.00 0.00 0.00 85 1006.6
20260505093046 21 290 8.0 16.1 0.00 0.00 0.00 86 1006.5
20260505092543 21 216 9.7 17.7 0.00 0.00 0.00 86 1006.7
20260505092042 21 190 11.3 20.9 0.00 0.00 0.00 86 1006.5
20260505091538 21 285 8.0 22.5 0.00 0.00 0.00 86 1006.6
20260505091037 21 228 8.0 22.5 0.00 0.00 0.00 85 1006.5
20260505090534 21 132 8.0 17.7 0.00 0.00 0.00 86 1006.5
20260505090032 21 215 6.4 12.9 0.00 0.00 0.00 86 1006.5
20260505085529 21 162 12.9 24.1 0.00 0.00 0.00 86 1006.4
20260505085027 21 216 8.0 17.7 0.00 0.00 0.00 86 1006.5
20260505084525 21 227 12.9 16.1 0.00 0.00 0.00 86 1006.6
20260505084023 21 196 12.9 22.5 0.00 0.00 0.00 86 1006.5
20260505083520 21 155 11.3 16.1 0.00 0.00 0.00 86 1006.6
20260505083017 21 167 8.0 20.9 0.00 0.00 0.00 86 1006.7
20260505082512 21 223 8.0 12.9 0.00 0.00 0.00 86 1006.7
20260505082009 21 105 4.8 12.9 0.00 0.00 0.00 86 1006.5
20260505081506 21 200 11.3 20.9 0.00 0.00 0.00 86 1006.6
20260505081002 21 243 6.4 20.9 0.00 0.00 0.00 86 1006.5
20260505080459 21 142 8.0 17.7 0.00 0.00 0.00 85 1006.8
20260505075954 21 235 8.0 14.5 0.00 0.00 0.00 85 1006.7
20260505075451 21 213 8.0 16.1 0.00 0.00 0.00 85 1006.9
20260505074949 21 185 8.0 17.7 0.00 0.00 0.00 85 1006.8
20260505074446 21 151 8.0 20.9 0.00 0.00 0.00 85 1007.0
20260505073943 21 169 9.7 12.9 0.00 0.00 0.00 86 1007.1
20260505073441 21 206 6.4 17.7 0.00 0.00 0.00 86 1007.1
20260505072938 21 221 8.0 17.7 0.00 0.00 0.00 85 1006.9
20260505072434 21 193 4.8 17.7 0.00 0.00 0.00 85 1007.1
20260505071931 21 182 4.8 16.1 0.00 0.00 0.00 85 1007.2
20260505071426 21 196 4.8 12.9 0.00 0.00 0.00 85 1007.4
20260505070924 21 239 6.4 12.9 0.00 0.00 0.00 85 1007.3
20260505070420 21 225 8.0 16.1 0.00 0.00 0.00 85 1007.5
20260505065916 21 212 4.8 11.3 0.00 0.00 0.00 85 1007.5
20260505065413 21 183 3.2 16.1 0.00 0.00 0.00 85 1007.7
20260505064910 21 210 8.0 12.9 0.00 0.00 0.00 85 1007.7
20260505064407 21 227 3.2 11.3 0.00 0.00 0.00 84 1007.8
20260505063905 21 203 3.2 12.9 0.00 0.00 0.00 84 1007.9
20260505063401 21 158 8.0 16.1 0.00 0.00 0.00 84 1007.6
20260505062858 21 132 6.4 14.5 0.00 0.00 0.00 84 1007.9
20260505062355 21 189 3.2 16.1 0.00 0.00 0.00 83 1008.0
20260505061852 21 180 3.2 11.3 0.00 0.00 0.00 83 1008.0
20260505061350 21 157 6.4 11.3 0.00 0.00 0.00 83 1008.0
20260505060848 21 198 4.8 16.1 0.00 0.00 0.00 83 1008.1
20260505060344 21 198 4.8 12.9 0.00 0.00 0.00 82 1008.0
20260505055840 21 186 3.2 6.4 0.00 0.00 0.00 82 1008.0
20260505055336 22 208 6.4 14.5 0.00 0.00 0.00 82 1008.0
20260505054833 21 293 4.8 9.7 0.00 0.00 0.00 82 1008.0
20260505054331 22 215 8.0 12.9 0.00 0.00 0.00 81 1008.1
20260505053829 22 215 6.4 16.1 0.00 0.00 0.00 81 1008.1
20260505053326 22 202 3.2 14.5 0.00 0.00 0.00 81 1008.5
20260505052822 22 189 6.4 12.9 0.00 0.00 0.00 80 1008.4
20260505052319 22 206 6.4 9.7 0.00 0.00 0.00 80 1008.3
20260505051817 22 168 6.4 14.5 0.00 0.00 0.00 80 1008.3
20260505051314 22 5 4.8 11.3 0.00 0.00 0.00 79 1008.2
20260505050812 22 205 6.4 12.9 0.00 0.00 0.00 79 1008.1
20260505050310 22 200 4.8 11.3 0.00 0.00 0.00 79 1008.3
20260505041740 22 255 12.9 17.7 0.00 0.00 0.00 76 1008.3
20260505041237 22 203 9.7 12.9 0.00 0.00 0.00 75 1008.4
20260505040734 22 229 9.7 12.9 0.00 0.00 0.00 75 1008.4
20260505040232 22 213 6.4 9.7 0.00 0.00 0.00 75 1008.2
20260505035729 22 202 6.4 12.9 0.00 0.00 0.00 75 1008.4
20260505035225 22 167 4.8 11.3 0.00 0.00 0.00 75 1008.2
20260505034722 22 226 11.3 14.5 0.00 0.00 0.00 75 1008.1
20260505034219 22 156 6.4 20.9 0.00 0.00 0.00 75 1008.1
20260505033715 22 197 4.8 12.9 0.00 0.00 0.00 74 1008.3
20260505033213 22 203 4.8 9.7 0.00 0.00 0.00 74 1008.5
20260505032710 22 211 6.4 11.3 0.00 0.00 0.00 74 1008.4
20260505032206 22 164 3.2 17.7 0.00 0.00 0.00 74 1008.4
20260505031704 22 212 4.8 12.9 0.00 0.00 0.00 74 1008.5
20260505031200 22 208 6.4 9.7 0.00 0.00 0.00 74 1008.3
20260505030657 23 196 3.2 6.4 0.00 0.00 0.00 73 1008.5
20260505030152 23 230 3.2 16.1 0.00 0.00 0.00 73 1008.4
20260505025649 23 197 6.4 11.3 0.00 0.00 0.00 73 1008.4
20260505025147 23 194 4.8 11.3 0.00 0.00 0.00 73 1008.3
20260505024644 23 200 4.8 12.9 0.00 0.00 0.00 73 1008.2
20260505024141 23 193 6.4 9.7 0.00 0.00 0.00 73 1008.2
20260505023639 23 159 3.2 11.3 0.00 0.00 0.00 73 1007.9
20260505023136 23 196 6.4 6.4 0.00 0.00 0.00 73 1008.1
20260505022634 23 199 6.4 12.9 0.00 0.00 0.00 73 1008.1
20260505022130 23 198 6.4 9.7 0.00 0.00 0.00 72 1008.4
20260505021627 23 181 3.2 9.7 0.00 0.00 0.00 72 1008.2
20260505021124 23 169 3.2 11.3 0.00 0.00 0.00 72 1008.1
20260505020619 23 230 3.2 12.9 0.00 0.00 0.00 72 1008.0
20260505020116 23 186 4.8 11.3 0.00 0.00 0.00 72 1008.2
20260505015613 23 181 6.4 9.7 0.00 0.00 0.00 72 1008.0
20260505015110 23 214 1.6 9.7 0.00 0.00 0.00 71 1008.3
20260505014606 23 189 8.0 16.1 0.00 0.00 0.00 71 1008.0
20260505014103 23 202 6.4 11.3 0.00 0.00 0.00 70 1008.0
20260505013601 23 215 3.2 12.9 0.00 0.00 0.00 70 1008.1
20260505013058 23 189 4.8 12.9 0.00 0.00 0.00 69 1008.1
20260505012556 23 216 6.4 11.3 0.00 0.00 0.00 68 1008.0
20260505012053 23 202 3.2 6.4 0.00 0.00 0.00 68 1008.2
20260505011548 24 176 3.2 6.4 0.00 0.00 0.00 68 1008.2
20260505011046 24 182 1.6 9.7 0.00 0.00 0.00 68 1008.0
20260505010541 24 180 3.2 9.7 0.00 0.00 0.00 67 1008.0
20260505010038 24 166 6.4 11.3 0.00 0.00 0.00 67 1008.1
20260505005534 25 189 9.7 14.5 0.00 0.00 0.00 66 1008.0
20260505005032 25 224 8.0 16.1 0.00 0.00 0.00 66 1008.1
20260505004529 25 328 6.4 14.5 0.00 0.00 0.00 65 1008.1
20260505004025 25 180 3.2 14.5 0.00 0.00 0.00 64 1007.9
20260505003522 25 144 4.8 12.9 0.00 0.00 0.00 64 1008.0
20260505003020 25 128 6.4 14.5 0.00 0.00 0.00 63 1008.2